Powrót do katalogu

FENGYUN 1C DEB

AktywnySSO
NORAD 30507·DEBRIS·🇨🇳 China

Wystrzelony May 10, 1999 z Taiyuan Satellite Launch Center

Loading…

Następne Przeloty (najbliższe 24 godziny)

TLE

ŚwieżeSource: Space-Track

Epoka: Sep 14, 2026, 03:17 UTC

1 30507U 99025AHV 26257.13713030  .00001685  00000-0  83805-3 0  9997
2 30507  98.9938 328.5113 0128288 118.0822 273.1279 14.14177062  3789

Śledź FENGYUN 1C DEB w czasie rzeczywistym z AllMySat

Download on the App Store